Terminal Aerodrome Forecast
Issued by NWS Wilmington, NC

Home | Current Version | Previous Version | Text Only | Print | Product List | Glossary On
Versions: 1 2 3 4 5 6 7 8 9 10 11 12 13 14 15
975
FTUS42 KILM 081259 AAA
TAFMYR
TAF AMD
KMYR 081259Z 0813/0912 VRB03KT 6SM BR BKN007 OVC020
      TEMPO 0813/0815 SCT007 OVC015
     FM081500 27005KT P6SM SCT020
     FM081900 34007KT P6SM SCT050 BKN100
     FM090000 35008KT P6SM SCT250=

USA.gov is the U.S. government's official web portal to all federal, state and local government web resources and services.